Location: DARK SKY Beskydy - Park tmavé oblohy, www.darkskybeskydy.cz
(49.4926°N, 18.5016°E)
Time: 11:14:38
(UTC+02:00)

BlueWalker 3 - Pass Details

Date: 21 June 2024
Orbit: 480 x 491 km, 53.2° (Epoch: 23 July)

Event Time Altitude Azimuth Distance (km) Brightness Sun altitude
Rises 02:13:08 0° 293° (WNW) 2,539 5.6 -14.6°
Reaches altitude 10° 02:15:18 10° 294° (WNW) 1,657 4.6 -14.5°
Maximum altitude 02:19:03 81° 21° (NNE) 491 1.9 -14.3°
Drops below altitude 10° 02:22:47 10° 110° (ESE) 1,653 4.6 -14.1°
Sets 02:24:57 0° 112° (ESE) 2,532 5.5 -13.9°
